Content
SEND FEEDBACK

Daily
Averages
Monthly
Summary
Canada

WATERLOO WELLING, ONTARIO


Home > North America > Canada > Ontario
Elevation: 1031 feet     Latitude: 43 27N     Longitude: 080 23W

WEATHER
 
SELECT A DAY
Number of Records: 259,783;   Date Range: 1/1/95 - 9/8/14
 
SHARE

PRINT THIS DATA

[ ← Previous Day ]
WEATHER ALMANAC - MAY 10, 2013
[ Next Day → ]
[ °C ]   °F
Weather ElementAverageHighLow
Temperature58.7 °F69.8 °F (3:58 pm)46.4 °F (3:00 am)
Dewpoint54.8 °F62.6 °F (5:00 pm)42.8 °F (2:00 am)
Humidity86.8 %100 % (11:58 pm)68 % (3:58 pm)
Barometer29.78 in29.96 in (1:00 am)29.72 in (5:12 pm)
Wind Speed10.2 mph27.6 mph (4:22 pm)
Wind Gust35.7 mph (4:21 pm)
Weather ElementAverage
Visibility6.1 mi
Wind DirectionS (183 °)

Weather ElementTotal
Precipitation---
Heating Degree Days6.9 (Base 65)
Growing Degree Days8.1 (Base 50)
Averaged from 87 records on May 10, 2013
WEATHER CONDITIONS BREAKOUT
WIND DIRECTION BREAKOUT
WEATHER BY HOUR - MAY 10, 2013
[ °C ]   °F
Local TimeTemperatureDewpointHumidityBarometerVisibilityWind DirectionWind SpeedGust SpeedPrecipitationEventsConditions
1:00 AM48.2 °F44.6 °F87 %29.96 in9.0 miNorth (360°)4.6 mphClear
2:00 AM49.0 °F43.0 °F74 %29.95 in10.0 miESE (120°)1.2 mph
2:00 AM50.0 °F42.8 °F76 %29.95 in9.0 miCalmClear
3:00 AM46.4 °F42.8 °F87 %29.93 in9.0 miCalmClear
4:00 AM48.2 °F44.6 °F87 %29.92 in9.0 miCalmScattered Clouds
5:00 AM48.2 °F44.6 °F87 %29.91 in9.0 miCalmOvercast
6:00 AM51.8 °F46.4 °F82 %29.89 in9.0 miENE (70°)6.9 mphOvercast
7:00 AM51.8 °F48.2 °F88 %29.90 in9.0 miENE (60°)5.8 mphMostly Cloudy
7:50 AM51.8 °F48.2 °F88 %29.89 in9.0 miENE (70°)6.9 mphRainLight Rain
8:00 AM53.6 °F48.2 °F82 %29.90 in9.0 miEast (90°)6.9 mphRainLight Rain
8:00 AM53.0 °F49.0 °F80 %29.90 in10.0 miEast (80°)5.8 mphRainLight Rain
9:00 AM53.6 °F50.0 °F88 %29.88 in9.0 miEast (90°)9.2 mphRainLight Rain
9:54 AM51.8 °F50.0 °F94 %29.87 in5.0 miEast (80°)10.4 mphRainLight Rain
10:00 AM51.8 °F50.0 °F94 %29.87 in5.0 miEast (80°)10.4 mphRainLight Rain
10:33 AM51.8 °F50.0 °F94 %29.85 in2.5 miEast (80°)15.0 mphRainRain
10:42 AM51.8 °F50.0 °F94 %29.85 in3.0 miEast (80°)13.8 mphRainLight Rain
10:48 AM51.8 °F50.0 °F94 %29.84 in6.0 miEast (80°)11.5 mph17.3 mphRainLight Rain
10:50 AM51.8 °F50.0 °F94 %29.86 in6.0 miSE (130°)6.9 mph17.3 mphRainLight Rain
11:00 AM51.8 °F50.0 °F94 %29.85 in6.0 miVariable10.4 mphOvercast
11:56 AM53.6 °F51.8 °F94 %29.84 in5.0 miEast (100°)9.2 mph19.6 mphOvercast
12:00 PM53.6 °F51.8 °F94 %29.84 in5.0 miEast (100°)10.4 mph19.6 mphOvercast
12:45 PM55.4 °F53.6 °F94 %29.82 in3.0 miESE (110°)10.4 mphOvercast
1:00 PM55.4 °F53.6 °F94 %29.82 in3.0 miESE (110°)10.4 mphOvercast
1:01 PM55.4 °F53.6 °F94 %29.82 in3.0 miESE (120°)9.2 mphRainLight Rain
1:05 PM55.4 °F53.6 °F94 %29.82 in2.5 miESE (110°)9.2 mphRainLight Rain
1:16 PM55.4 °F53.6 °F94 %29.81 in3.0 miESE (120°)10.4 mphRainLight Rain
1:27 PM55.4 °F53.6 °F94 %29.81 in3.0 miESE (110°)11.5 mphOvercast
2:00 PM57.2 °F53.6 °F88 %29.80 in3.0 miSE (140°)8.1 mphOvercast
2:00 PM57.0 °F54.0 °F88 %29.80 in3.0 miESE (120°)9.2 mphMist
2:22 PM59.0 °F57.2 °F94 %29.78 in4.0 miSE (130°)13.8 mphMostly Cloudy
2:33 PM60.8 °F57.2 °F88 %29.78 in5.0 miSE (140°)15.0 mphMostly Cloudy
2:52 PM60.8 °F57.2 °F88 %29.76 in5.0 miSE (140°)11.5 mph19.6 mphHaze
2:53 PM60.8 °F57.2 °F88 %29.76 in6.0 miSE (140°)11.5 mph17.3 mphHaze
2:54 PM60.8 °F57.2 °F88 %29.76 in6.0 miSE (130°)12.7 mphHaze
3:00 PM62.6 °F57.2 °F82 %29.76 in7.0 miSE (140°)12.7 mphMostly Cloudy
3:11 PM62.6 °F57.2 °F82 %29.75 in7.0 miSSE (150°)11.5 mphOvercast
3:12 PM62.6 °F57.2 °F82 %29.75 in7.0 miSSE (150°)11.5 mphOvercast
3:13 PM62.6 °F57.2 °F82 %29.75 in7.0 miSSE (150°)10.4 mphOvercast
3:14 PM62.6 °F57.2 °F82 %29.75 in7.0 miSSE (150°)10.4 mphOvercast
3:15 PM62.6 °F57.2 °F82 %29.75 in7.0 miSSE (150°)10.4 mphOvercast
3:20 PM62.6 °F57.2 °F82 %29.75 in7.0 miSSE (160°)6.9 mphOvercast
3:22 PM62.6 °F59.0 °F88 %29.75 in7.0 miSSE (160°)6.9 mphOvercast
3:23 PM62.6 °F57.2 °F82 %29.75 in7.0 miSouth (170°)6.9 mphOvercast
3:36 PM68.0 °F59.0 °F73 %29.74 in9.0 miSSW (210°)15.0 mphOvercast
3:58 PM69.8 °F59.0 °F68 %29.73 in9.0 miSSW (210°)12.7 mph19.6 mphThunderstormMostly Cloudy
4:00 PM69.8 °F59.0 °F68 %29.73 in9.0 miSSW (200°)15.0 mphThunderstormMostly Cloudy
4:03 PM68.0 °F59.0 °F73 %29.73 in9.0 miSSW (210°)15.0 mphThunderstormThunderstorm
4:21 PM68.0 °F59.0 °F73 %29.73 in9.0 miWSW (250°)26.5 mph35.7 mphThunderstormThunderstorm
4:22 PM66.2 °F59.0 °F78 %29.73 in2.5 miWest (270°)27.6 mph35.7 mphThunderstorm
4:24 PM64.4 °F59.0 °F83 %29.73 in2.0 miWNW (300°)21.9 mph35.7 mphRain-ThunderstormHeavy Thunderstorms and Rain
4:26 PM62.6 °F57.2 °F82 %29.73 in1.8 miWNW (300°)18.4 mph35.7 mphRain-ThunderstormHeavy Thunderstorms and Rain
4:30 PM62.6 °F59.0 °F88 %29.73 in1.8 miWest (280°)12.7 mph35.7 mphRain-ThunderstormLight Thunderstorms and Rain
4:32 PM62.6 °F59.0 °F88 %29.73 in3.0 miWest (280°)10.4 mph29.9 mphRain-ThunderstormLight Thunderstorms and Rain
4:34 PM62.6 °F59.0 °F88 %29.73 in6.0 miWest (270°)12.7 mph27.6 mphRain-ThunderstormLight Thunderstorms and Rain
4:35 PM62.6 °F59.0 °F88 %29.73 in7.0 miWest (260°)13.8 mph21.9 mphRain-ThunderstormLight Rain
4:38 PM62.6 °F59.0 °F88 %29.73 in5.0 miWest (260°)12.7 mph18.4 mphRain-ThunderstormHeavy Rain
4:40 PM62.6 °F59.0 °F88 %29.73 in4.0 miWest (260°)11.5 mph18.4 mphRainHeavy Rain
4:41 PM62.6 °F59.0 °F88 %29.73 in4.0 miWest (260°)11.5 mph18.4 mphRain-ThunderstormHeavy Thunderstorms and Rain
4:43 PM62.6 °F59.0 °F88 %29.73 in4.0 miWest (260°)9.2 mph18.4 mphRain-ThunderstormLight Thunderstorms and Rain
4:48 PM62.6 °F60.8 °F94 %29.73 in6.0 miWest (260°)9.2 mphRain-ThunderstormLight Thunderstorms and Rain
4:53 PM64.4 °F60.8 °F88 %29.73 in9.0 miWest (270°)6.9 mphThunderstormThunderstorm
4:57 PM64.4 °F60.8 °F88 %29.73 in9.0 miWest (270°)5.8 mphMostly Cloudy
5:00 PM64.4 °F62.6 °F94 %29.73 in9.0 miWest (280°)5.8 mphMostly Cloudy
5:12 PM66.2 °F62.6 °F88 %29.72 in6.0 miWNW (300°)11.5 mphThunderstormHaze
5:16 PM66.2 °F60.8 °F83 %29.73 in5.0 miWNW (300°)13.8 mph19.6 mphThunderstormHaze
5:36 PM64.4 °F59.0 °F83 %29.73 in3.0 miWNW (300°)11.5 mphThunderstormHaze
5:37 PM64.4 °F59.0 °F83 %29.73 in3.0 miWNW (300°)12.7 mphHaze
6:00 PM64.4 °F59.0 °F83 %29.73 in3.0 miWNW (290°)12.7 mphHaze
6:57 PM62.6 °F57.2 °F82 %29.73 in6.0 miWest (270°)8.1 mphHaze
6:59 PM62.6 °F57.2 °F82 %29.73 in6.0 miWest (270°)8.1 mphHaze
7:00 PM62.6 °F57.2 °F82 %29.73 in6.0 miWest (270°)6.9 mphHaze
7:02 PM62.6 °F57.2 °F82 %29.73 in6.0 miWest (270°)8.1 mphHaze
7:33 PM60.8 °F57.2 °F88 %29.73 in9.0 miWest (280°)9.2 mphMostly Cloudy
8:00 PM61.0 °F56.0 °F77 %29.72 in10.0 miWest (260°)9.2 mphClear
8:00 PM60.8 °F55.4 °F82 %29.72 in9.0 miWSW (250°)8.1 mphMostly Cloudy
8:49 PM60.8 °F55.4 °F82 %29.72 in9.0 miSW (230°)5.8 mphRainLight Rain
9:00 PM59.0 °F55.4 °F88 %29.72 in9.0 miSSW (200°)10.4 mphRainLight Rain
9:15 PM59.0 °F55.4 °F88 %29.72 in5.0 miSSW (210°)9.2 mphRainLight Rain
9:55 PM57.2 °F55.4 °F94 %29.72 in4.0 miSSW (200°)8.1 mphRainLight Rain
9:56 PM57.2 °F55.4 °F94 %29.72 in4.0 miSSW (210°)8.1 mphOvercast
10:00 PM57.2 °F55.4 °F94 %29.72 in4.0 miSW (220°)8.1 mphOvercast
10:10 PM57.2 °F55.4 °F94 %29.72 in4.0 miSW (230°)9.2 mphOvercast
10:41 PM55.4 °F53.6 °F94 %29.72 in6.0 miSW (230°)10.4 mphOvercast
11:00 PM53.6 °F51.8 °F94 %29.73 in8.0 miWSW (240°)13.8 mphOvercast
11:12 PM53.6 °F51.8 °F94 %29.72 in6.0 miWSW (250°)13.8 mphOvercast
11:13 PM51.8 °F50.0 °F94 %29.72 in5.0 miWSW (250°)12.7 mph19.6 mphOvercast
11:58 PM48.2 °F48.2 °F100 %29.73 in6.0 miWest (260°)10.4 mphOvercast
Hourly data recorded from CYKF, located miles away from Waterloo Welling, Ontario







STORIES FROM OUR PARTNERS